Probability
0 0 0 0 0 0 0 0 0 0 0 0 0 0 0 0 0 0 0 0 0 0 0 0 0 0 0 0 0 0 0 0 0 0 0 0 0 0
0 0 0 0 0 0 0 0 0 0 0 0 0 0 0 0 0 0 0 0 0 0 0 0 0 0 0 0 0 0 0 0 0 0 0 0 0 0
0 0 1 1 1 0 0 0 0 0 0 0 0 0 0 0 0 0 0 0 0 0 0 0 0 0 0 0 0 0 0 0 0 0 0 0 0 0
0 0 1 2 1 0 0 0 0 0 0 0 0 0 0 0 0 0 0 0 0 0 0 0 0 0 0 0 0 0 0 0 0 0 0 0 0 0
0 0 1 1 0 0 0 0 0 0 0 0 0 0 0 0 0 0 0 0 0 0 0 0 0 0 0 0 0 0 0 0 0 0 0 0 0 0
0 0 0 0 0 0 0 0 0 0 0 0 0 0 0 0 0 0 0 0 0 0 0 0 0 0 0 0 0 0 0 0 0 0 0 0 0 0
0 0 0 0 0 0 0 0 0 0 0 0 0 0 0 0 0 0 0 0 0 0 0 0 0 0 0 0 0 0 0 0 0 0 0 0 0 0
0 0 0 0 0 0 0 0 0 0 0 0 0 0 0 0 0 0 0 0 0 0 0 0 0 0 0 0 0 0 0 0 0 0 0 0 0 0
0 0 0 0 0 0 0 0 0 0 0 0 0 0 0 0 0 0 0 0 0 0 0 0 0 0 0 0 0 0 0 0 0 0 0 0 0 0
0 0 0 0 0 0 0 0 0 0 0 0 0 0 0 0 0 0 0 0 0 0 0 0 0 0 0 0 0 0 0 0 0 0 0 0 0 0
0 0 0 0 0 0 0 0 0 0 0 0 0 0 0 0 0 0 0 0 0 0 0 0 0 0 0 0 0 0 0 0 0 0 0 0 0 0
0 0 0 0 0 0 0 0 0 0 0 0 0 0 0 0 0 0 0 0 0 0 0 0 0 0 0 0 0 0 0 0 0 0 0 0 0 0
0 0 0 0 0 0 0 0 0 0 0 0 0 0 0 0 0 0 0 0 0 0 0 0 0 0 0 0 0 0 0 0 0 0 0 0 0 0
0 0 0 0 0 0 0 0 0 0 0 0 0 0 0 0 0 0 0 0 0 0 0 0 0 0 0 0 0 0 0 0 0 0 0 0 0 0
0 0 0 0 0 0 0 0 0 0 0 0 0 0 0 0 0 0 0 0 0 0 0 0 0 0 0 0 0 0 0 0 0 0 0 0 0 0
0 0 0 0 0 0 0 0 0 0 0 0 0 0 0 0 0 0 0 0 0 0 0 0 0 0 0 0 0 0 0 0 0 0 0 0 0 0
0 0 0 0 0 0 0 0 0 0 0 0 0 0 0 0 0 0 0 0 0 0 0 0 0 0 0 0 0 0 0 0 0 0 0 0 0 0
0 0 0 0 0 0 0 0 0 0 0 0 0 0 0 0 0 0 0 0 0 0 0 0 0 0 0 0 0 0 0 0 0 0 0 0 0 0
0 0 0 0 0 0 0 0 0 0 0 0 0 0 0 0 0 0 0 0 0 0 0 0 0 0 0 0 0 0 0 0 0 0 0 0 0 0
0 0 0 0 0 0 0 0 0 0 0 0 0 0 0 0 0 0 0 0 0 0 0 0 0 0 0 0 0 0 0 0 0 0 0 0 0 0
0 0 0 0 0 0 0 0 0 0 0 0 0 0 0 0 0 0 0 0 0 0 0 0 0 0 0 0 0 0 0 0 0 0 0 0 0 0
0 0 0 0 0 0 0 0 0 0 0 0 0 0 0 0 0 0 0 0 0 0 0 0 0 0 0 0 0 0 0 0 0 0 0 0 0 0
0 0 0 0 0 0 0 0 0 0 0 0 0 0 0 0 0 0 0 0 0 0 0 0 0 0 0 0 0 0 0 0 0 0 0 0 0 0
Wind_Speed
4 4 4 3 3 3 3 3 3 4 5 3 2 2 2 2 4 3 3 7 8 8 8 8 8 9 9 10 10 10 10 10 11 11 12 13 14 15
4 4 4 3 3 3 3 3 3 4 5 3 3 3 3 3 5 3 3 7 7 8 8 8 8 8 8 9 9 9 9 10 11 12 12 13 14 14
4 5 5 4 4 3 3 3 3 3 5 4 2 2 3 3 4 3 3 3 3 7 8 8 7 8 8 9 9 9 9 10 10 11 12 13 13 14
4 4 5 4 4 4 3 4 3 3 4 5 3 2 3 3 3 3 3 3 3 6 7 8 8 8 8 9 9 9 9 9 10 10 11 13 13 13
4 4 4 4 5 3 4 3 3 3 3 3 4 2 2 2 3 3 3 3 3 4 6 7 8 8 9 9 8 8 8 8 9 10 10 12 12 13
4 4 4 4 5 4 4 4 3 2 2 2 3 2 2 2 2 2 3 3 3 3 5 5 7 8 8 8 7 6 6 7 8 9 10 11 11 12
3 3 4 4 5 4 3 3 2 2 2 2 2 2 2 1 2 2 3 3 3 2 2 3 4 3 4 6 6 6 6 7 8 9 9 10 10 11
3 3 3 3 4 5 5 4 3 3 3 3 3 3 3 2 2 2 2 2 3 2 2 4 3 3 3 3 5 6 6 6 7 8 10 10 10 10
3 3 2 2 3 2 2 2 2 3 4 3 3 3 3 3 2 2 2 2 3 2 2 4 3 4 3 4 7 6 6 6 7 9 9 9 9 9
2 2 2 2 2 2 1 1 1 2 2 2 2 3 2 2 3 2 2 1 1 2 1 2 3 3 4 4 6 5 5 6 7 7 8 8 9 9
2 2 2 2 2 2 1 1 1 1 2 2 2 2 2 2 1 0 0 1 2 2 1 1 2 3 3 2 3 5 6 7 8 7 7 8 9 8
2 2 3 2 2 2 2 2 1 1 0 1 2 3 2 2 3 1 1 1 1 2 1 1 1 2 3 2 2 3 4 6 8 8 8 8 8 4
2 2 2 2 2 2 1 1 1 1 1 1 1 1 2 1 2 1 1 1 1 2 2 1 1 1 1 3 3 3 3 4 4 4 6 8 8 6
2 2 1 1 2 1 1 0 1 1 1 1 1 1 1 2 2 2 2 1 1 2 2 1 1 1 1 2 3 3 3 3 3 3 3 7 7 8
1 1 1 0 0 0 0 1 1 0 1 1 1 1 1 2 2 2 2 2 3 2 1 1 0 1 1 1 2 3 3 3 3 3 3 4 4 4
0 0 0 1 1 1 1 1 0 0 1 0 0 1 1 1 1 2 2 2 2 3 3 3 1 0 0 1 1 2 2 2 2 3 3 3 3 3
0 0 1 1 1 0 1 1 0 1 0 0 0 1 1 1 1 2 1 2 2 2 3 3 3 2 0 1 1 1 2 2 2 3 3 4 4 3
1 1 0 0 1 1 1 0 0 0 0 0 0 1 1 1 1 2 2 1 1 1 2 2 2 2 2 2 1 1 1 1 2 3 2 2 4 4
1 1 0 0 1 1 0 0 0 0 0 0 0 0 0 1 1 1 1 1 1 2 2 2 2 2 2 2 3 2 1 2 2 3 3 2 3 4
1 0 0 0 0 0 0 0 0 0 0 0 0 0 0 0 1 1 1 1 1 1 2 2 2 2 1 0 1 2 3 2 2 2 2 2 2 4
1 1 1 0 0 0 0 0 0 0 0 0 0 0 0 1 1 1 1 1 1 1 1 2 2 3 1 1 1 2 3 5 4 2 2 2 2 3
1 1 1 1 1 0 0 0 0 0 0 0 1 1 1 1 1 0 0 1 1 1 1 1 2 2 2 2 2 2 3 4 5 7 5 3 1 1
1 1 0 0 0 0 0 0 0 0 0 1 1 1 1 1 0 0 0 0 0 1 1 1 2 2 2 2 1 1 3 3 3 4 4 6 6 4
Wind_Direction
240 237 239 235 229 232 226 221 233 266 272 255 266 274 273 273 283 282 281 287 292 290 288 288 289 289 289 290 291 290 291 292 293 291 288 287 287 289
236 230 233 235 232 229 227 229 225 239 264 261 254 282 291 300 298 293 279 295 295 292 286 284 286 289 291 290 289 289 290 290 289 288 288 288 289 289
239 228 233 233 232 232 226 225 235 233 259 280 275 286 285 287 300 298 287 282 288 295 290 285 287 289 290 291 289 288 288 288 289 291 291 291 292 292
238 234 236 236 233 233 226 226 233 232 241 270 283 279 278 280 287 292 295 293 286 290 294 291 290 290 290 288 289 288 288 289 291 294 295 295 294 295
237 235 237 233 233 232 230 231 238 247 245 255 274 283 283 294 302 306 303 297 300 304 295 291 294 294 293 293 290 287 291 293 294 297 299 300 299 300
241 236 236 235 235 230 232 230 229 234 241 251 265 278 284 292 291 300 309 303 301 309 300 300 302 300 296 298 297 293 293 293 295 299 302 303 304 302
253 244 244 248 249 248 246 227 219 226 236 248 263 278 278 290 282 288 293 304 302 306 309 307 310 302 293 293 297 300 298 297 301 302 304 309 310 308
263 260 257 257 264 276 275 267 248 233 235 239 252 258 269 276 274 275 289 311 303 314 317 306 312 302 298 288 297 303 307 306 306 308 310 313 315 313
259 251 259 271 278 259 278 305 299 290 262 239 237 252 255 253 248 264 275 287 278 292 308 298 303 295 302 299 299 303 307 310 314 313 314 320 324 323
258 246 239 246 254 247 206 233 291 306 299 279 242 245 257 243 225 231 232 276 297 311 319 285 298 298 307 303 304 305 312 319 321 321 326 331 336 336
265 253 244 238 261 269 225 218 283 314 336 348 335 331 317 308 294 43 324 315 310 308 308 263 298 313 314 311 319 336 341 339 337 337 339 344 348 346
265 262 260 258 265 271 230 200 227 276 12 17 3 354 348 339 331 307 247 262 299 292 281 301 307 337 325 316 322 326 332 339 344 347 349 350 350 353
254 258 249 268 275 277 261 204 221 228 133 105 25 358 355 354 344 320 288 244 251 264 255 250 299 337 289 307 318 331 339 335 337 345 354 358 358 1
239 241 238 252 263 270 288 320 36 36 89 76 34 356 349 336 325 313 306 299 276 258 253 236 227 236 275 302 305 325 335 335 348 354 354 358 1 360
232 220 228 275 281 257 321 8 34 75 96 72 2 327 326 316 322 336 358 18 18 3 341 315 245 229 221 249 291 314 326 335 351 359 354 352 350 349
284 261 57 59 55 67 56 12 0 112 120 116 340 324 334 344 356 354 3 12 20 5 6 12 10 150 250 278 275 302 317 318 340 349 349 346 346 350
178 83 82 72 81 68 37 22 23 28 32 46 35 2 354 3 5 6 15 22 23 4 1 6 15 25 311 246 293 308 322 335 337 348 354 350 347 350
108 107 123 166 189 203 194 230 313 309 309 317 352 352 344 356 17 26 30 38 28 7 4 359 8 17 27 24 21 332 355 355 345 346 353 355 343 343
104 113 164 247 234 216 202 184 222 293 293 269 295 316 355 13 36 39 34 33 27 17 6 1 4 17 32 8 352 24 28 354 351 351 351 346 329 326
41 45 305 281 251 230 156 95 54 356 7 66 65 24 60 69 60 43 35 41 35 25 20 14 10 4 9 321 323 341 355 355 355 350 348 342 330 330
2 11 355 327 17 78 72 64 57 6 16 47 44 13 87 97 69 35 36 46 45 48 30 2 335 340 343 65 40 359 355 1 358 349 342 343 350 0
354 5 9 13 42 60 66 67 58 24 45 71 46 36 60 84 87 49 46 41 26 33 14 350 347 4 41 63 46 4 356 1 10 11 6 353 342 351
335 332 343 18 37 56 121 118 50 67 66 65 59 61 77 68 71 88 75 61 62 56 49 28 14 34 49 66 56 24 12 5 9 15 15 17 23 12